TimeEST,TemperatureF,Dew PointF,Humidity,Sea Level PressureIn,VisibilityMPH,Wind Direction,Wind SpeedMPH,Gust SpeedMPH,PrecipitationIn,Events,Conditions,WindDirDegrees,DateUTC
12:15 AM,35.6,35.6,100,29.97,10.0,Calm,Calm,-,N/A,,Clear,0,2012-11-08 05:15:00
12:35 AM,35.6,33.8,93,29.97,10.0,Calm,Calm,-,N/A,,Scattered Clouds,0,2012-11-08 05:35:00
12:55 AM,33.8,33.8,100,29.96,10.0,Calm,Calm,-,N/A,,Scattered Clouds,0,2012-11-08 05:55:00
1:15 AM,35.6,33.8,93,29.97,10.0,Calm,Calm,-,N/A,,Scattered Clouds,0,2012-11-08 06:15:00
1:35 AM,35.6,35.6,100,29.96,10.0,Calm,Calm,-,N/A,,Scattered Clouds,0,2012-11-08 06:35:00
1:55 AM,35.6,35.6,100,29.96,10.0,Calm,Calm,-,N/A,,Mostly Cloudy,0,2012-11-08 06:55:00
2:15 AM,35.6,35.6,100,29.97,10.0,Calm,Calm,-,N/A,,Mostly Cloudy,0,2012-11-08 07:15:00
2:35 AM,33.8,33.8,100,29.97,10.0,Calm,Calm,-,N/A,,Scattered Clouds,0,2012-11-08 07:35:00
2:55 AM,33.8,33.8,100,29.97,10.0,Calm,Calm,-,N/A,,Clear,0,2012-11-08 07:55:00
3:15 AM,33.8,33.8,100,29.97,10.0,Calm,Calm,-,N/A,,Clear,0,2012-11-08 08:15:00
3:35 AM,32.0,32.0,100,29.97,7.0,Calm,Calm,-,N/A,,Clear,0,2012-11-08 08:35:00
3:55 AM,32.0,32.0,100,29.98,7.0,Calm,Calm,-,N/A,,Clear,0,2012-11-08 08:55:00
4:15 AM,30.2,30.2,100,29.98,7.0,Calm,Calm,-,N/A,,Clear,0,2012-11-08 09:15:00
4:35 AM,30.2,30.2,100,29.99,7.0,Calm,Calm,-,N/A,,Clear,0,2012-11-08 09:35:00
4:55 AM,30.2,30.2,100,29.99,7.0,Calm,Calm,-,N/A,,Clear,0,2012-11-08 09:55:00
5:15 AM,30.2,30.2,100,30.00,7.0,Calm,Calm,-,N/A,,Clear,0,2012-11-08 10:15:00
5:35 AM,30.2,30.2,100,30.00,7.0,Calm,Calm,-,N/A,,Clear,0,2012-11-08 10:35:00
6:15 AM,30.2,30.2,100,30.01,7.0,Calm,Calm,-,N/A,,Clear,0,2012-11-08 11:15:00
6:35 AM,30.2,30.2,100,30.02,10.0,Calm,Calm,-,N/A,,Clear,0,2012-11-08 11:35:00
6:55 AM,30.2,28.4,93,30.03,10.0,NNW,9.2,-,N/A,,Clear,330,2012-11-08 11:55:00
7:15 AM,42.8,21.2,42,30.03,10.0,NW,8.1,-,N/A,,Clear,320,2012-11-08 12:15:00
7:35 AM,41.0,21.2,45,30.04,10.0,NNW,8.1,-,N/A,,Clear,330,2012-11-08 12:35:00
7:55 AM,44.6,21.2,39,30.05,10.0,NNW,6.9,-,N/A,,Clear,340,2012-11-08 12:55:00
8:15 AM,46.4,21.2,37,30.05,10.0,NW,10.4,-,N/A,,Clear,320,2012-11-08 13:15:00
8:35 AM,48.2,17.6,30,30.06,10.0,NNW,10.4,18.4,N/A,,Clear,330,2012-11-08 13:35:00
8:55 AM,50.0,17.6,28,30.07,10.0,NW,8.1,-,N/A,,Clear,320,2012-11-08 13:55:00
9:15 AM,51.8,15.8,24,30.07,10.0,NW,12.7,16.1,N/A,,Clear,310,2012-11-08 14:15:00
9:35 AM,53.6,15.8,22,30.07,10.0,North,9.2,-,N/A,,Clear,350,2012-11-08 14:35:00
9:55 AM,53.6,12.2,19,30.08,10.0,NNW,15.0,21.9,N/A,,Clear,330,2012-11-08 14:55:00
10:15 AM,53.6,14.0,21,30.08,10.0,NNW,13.8,-,N/A,,Clear,330,2012-11-08 15:15:00
10:35 AM,55.4,15.8,21,30.08,10.0,NNW,10.4,18.4,N/A,,Clear,340,2012-11-08 15:35:00
10:55 AM,55.4,12.2,18,30.08,10.0,North,10.4,18.4,N/A,,Clear,360,2012-11-08 15:55:00
11:15 AM,57.2,12.2,17,30.08,10.0,NNW,11.5,17.3,N/A,,Clear,340,2012-11-08 16:15:00
11:35 AM,57.2,10.4,16,30.07,10.0,North,15.0,18.4,N/A,,Clear,350,2012-11-08 16:35:00
11:55 AM,59.0,10.4,15,30.06,10.0,NNW,12.7,16.1,N/A,,Clear,340,2012-11-08 16:55:00
12:15 PM,60.8,10.4,14,30.06,10.0,NW,11.5,-,N/A,,Clear,310,2012-11-08 17:15:00
12:35 PM,60.8,12.2,15,30.05,10.0,NW,9.2,18.4,N/A,,Clear,320,2012-11-08 17:35:00
12:55 PM,60.8,10.4,14,30.05,10.0,NNW,11.5,17.3,N/A,,Clear,330,2012-11-08 17:55:00
1:15 PM,60.8,12.2,15,30.05,10.0,NNW,6.9,17.3,N/A,,Clear,330,2012-11-08 18:15:00
1:35 PM,60.8,10.4,14,30.04,10.0,North,8.1,17.3,N/A,,Clear,350,2012-11-08 18:35:00
1:55 PM,62.6,12.2,14,30.04,10.0,NNW,10.4,21.9,N/A,,Clear,330,2012-11-08 18:55:00
2:15 PM,62.6,10.4,13,30.04,10.0,NNW,13.8,20.7,N/A,,Clear,330,2012-11-08 19:15:00
2:35 PM,62.6,12.2,14,30.04,10.0,NW,11.5,17.3,N/A,,Clear,310,2012-11-08 19:35:00
2:55 PM,62.6,12.2,14,30.04,10.0,NNW,12.7,24.2,N/A,,Clear,340,2012-11-08 19:55:00
3:15 PM,62.6,12.2,14,30.04,10.0,NW,15.0,18.4,N/A,,Clear,310,2012-11-08 20:15:00
3:35 PM,60.8,12.2,15,30.05,10.0,NNW,8.1,-,N/A,,Clear,340,2012-11-08 20:35:00
3:55 PM,60.8,15.8,17,30.05,10.0,NNW,9.2,-,N/A,,Clear,330,2012-11-08 20:55:00
4:15 PM,59.0,14.0,17,30.06,10.0,NW,15.0,19.6,N/A,,Clear,320,2012-11-08 21:15:00
4:35 PM,57.2,12.2,17,30.06,10.0,NW,12.7,19.6,N/A,,Clear,320,2012-11-08 21:35:00
4:55 PM,57.2,12.2,17,30.07,10.0,NW,13.8,18.4,N/A,,Clear,320,2012-11-08 21:55:00
5:15 PM,55.4,12.2,18,30.07,10.0,NW,8.1,-,N/A,,Clear,310,2012-11-08 22:15:00
5:35 PM,53.6,15.8,22,30.08,10.0,Calm,Calm,-,N/A,,Clear,0,2012-11-08 22:35:00
5:55 PM,48.2,15.8,27,30.09,10.0,Calm,Calm,-,N/A,,Clear,0,2012-11-08 22:55:00
6:15 PM,48.2,17.6,30,30.10,10.0,Calm,Calm,-,N/A,,Clear,0,2012-11-08 23:15:00
6:35 PM,44.6,19.4,37,30.11,10.0,NW,5.8,-,N/A,,Clear,310,2012-11-08 23:35:00
6:55 PM,42.8,21.2,42,30.11,10.0,NW,3.5,-,N/A,,Clear,310,2012-11-08 23:55:00
7:15 PM,48.2,15.8,27,30.12,10.0,NW,9.2,-,N/A,,Clear,310,2012-11-09 00:15:00
7:35 PM,48.2,17.6,30,30.12,10.0,Calm,Calm,-,N/A,,Clear,0,2012-11-09 00:35:00
7:55 PM,44.6,19.4,37,30.12,10.0,Calm,Calm,-,N/A,,Clear,0,2012-11-09 00:55:00
8:15 PM,41.0,21.2,45,30.13,10.0,Calm,Calm,-,N/A,,Clear,0,2012-11-09 01:15:00
8:35 PM,39.2,23.0,52,30.13,10.0,Calm,Calm,-,N/A,,Clear,0,2012-11-09 01:35:00
8:55 PM,39.2,21.2,49,30.14,10.0,Calm,Calm,-,N/A,,Clear,0,2012-11-09 01:55:00
9:15 PM,39.2,21.2,49,30.15,10.0,WNW,5.8,-,N/A,,Clear,300,2012-11-09 02:15:00
9:35 PM,42.8,21.2,42,30.15,10.0,NW,3.5,-,N/A,,Clear,320,2012-11-09 02:35:00
9:55 PM,39.2,21.2,49,30.16,10.0,Calm,Calm,-,N/A,,Clear,0,2012-11-09 02:55:00
10:15 PM,37.4,24.8,60,30.16,10.0,WNW,4.6,-,N/A,,Clear,290,2012-11-09 03:15:00
10:35 PM,37.4,24.8,60,30.16,10.0,Calm,Calm,-,N/A,,Clear,0,2012-11-09 03:35:00
10:55 PM,35.6,24.8,65,30.16,10.0,Calm,Calm,-,N/A,,Clear,0,2012-11-09 03:55:00
11:15 PM,35.6,24.8,65,30.16,10.0,Calm,Calm,-,N/A,,Clear,0,2012-11-09 04:15:00
11:35 PM,35.6,24.8,65,30.15,10.0,Calm,Calm,-,N/A,,Clear,0,2012-11-09 04:35:00
11:55 PM,33.8,24.8,70,30.16,10.0,Calm,Calm,-,N/A,,Clear,0,2012-11-09 04:55:00